This is the latest recevied weather packets stored in our database for station/object ka8upw-1. If no packets are shown the sender has not sent any weather packets the latest 10 day(s).
| Time | Temp. | Humidity | Pressure | Rain* | Wind** | Luminosity | Snow |
|---|---|---|---|---|---|---|---|
| 1777988703 | 17.22° C | 75% | 1005 hPa | 0 mm | - | - | - |
| 1777987084 | 16.11° C | 77% | 1005.1 hPa | 0 mm | - | - | - |
| 1777985103 | 15.56° C | 80% | 1004.7 hPa | 0 mm | - | - | - |
| 1777979883 | 14.44° C | 82% | 1002.7 hPa | 0 mm | - | - | - |
| 1777978808 | 14.44° C | 82% | 1002.8 hPa | 0.51 mm | - | - | - |
| 1777977364 | 13.89° C | 84% | 1003.4 hPa | 0.51 mm | - | - | - |
| 1777971604 | 16.67° C | 72% | 1003.5 hPa | 0 mm | - | - | - |
| 1777970703 | 17.22° C | 71% | 1003.2 hPa | 0 mm | - | - | - |
| 1777969083 | 17.22° C | 70% | 1002.7 hPa | 0 mm | - | - | - |
| 1777966563 | 18.33° C | 67% | 1002.3 hPa | 0.25 mm | - | - | - |
| 1777963503 | 19.44° C | 62% | 1001.9 hPa | 0 mm | - | - | - |
| 1777963101 | 19.44° C | 61% | 1001.8 hPa | 0 mm | - | - | - |
| 1777955763 | 18.89° C | 66% | 1002.7 hPa | 0 mm | - | - | - |
| 1777952705 | 18.89° C | 66% | 1002.8 hPa | 0 mm | - | - | - |
| 1777951083 | 18.33° C | 66% | 1002.9 hPa | 0 mm | - | - | - |
| 1777949644 | 18.89° C | 66% | 1002.8 hPa | 0 mm | - | - | - |
| 1777947483 | 18.89° C | 66% | 1003 hPa | 0 mm | - | - | - |
| 1777946044 | 18.89° C | 65% | 1003 hPa | 0 mm | - | - | - |
| 1777942804 | 18.89° C | 63% | 1002.8 hPa | 0 mm | - | - | - |
| 1777941363 | 19.44° C | 61% | 1002.7 hPa | 0 mm | - | - | - |
| 1777934704 | 22.78° C | 49% | 1002.2 hPa | 0 mm | - | - | - |
| 1777932544 | 22.78° C | 52% | 1002.4 hPa | 0 mm | - | - | - |
| 1777932004 | 22.78° C | 51% | 1002.4 hPa | 0 mm | - | - | - |
| 1777931103 | 22.22° C | 52% | 1002.4 hPa | 0 mm | - | - | - |
| 1777920441 | 21.67° C | 57% | 1003.9 hPa | 0 mm | - | - | - |
* Rain latest hour (hover to see other rain measurements)
** Current wind speed in m/s (hover to see current wind gust speed)